Retour au catalogue

STARLINK-36733

ActifCommunicationsSSO
NORAD 67811·PAYLOAD·🇺🇸 United States

Lancé Feb 15, 2026 depuis Vandenberg Space Force Base

Loading…

Prochains Passages (prochaines 24 heures)

TLE

FraisSource: CelesTrak SupGP

Époque: Sep 14, 2026, 23:02 UTC

1 67811C 26032Q   26257.96020833  .00069024  00000+0  21430-2 0  2578
2 67811  97.2855  84.4921 0001604  92.4121 111.6164 15.33398911    13

Suivez STARLINK-36733 en temps réel avec AllMySat

Download on the App Store